This is the latest recevied weather packets stored in our database for station/object SQ4LOL-9. If no packets are shown the sender has not sent any weather packets the latest 10 day(s).
| Time | Temp. | Humidity | Pressure | Rain* | Wind** | Luminosity | Snow |
|---|---|---|---|---|---|---|---|
| 1778142927 | 18.89° C | 49% | 989.3 hPa | - | - | - | - |
| 1778142914 | 18.89° C | 50% | 989.5 hPa | - | - | - | - |
| 1778142908 | 18.89° C | 50% | 989.8 hPa | - | - | - | - |
| 1778142895 | 18.33° C | 50% | 989.7 hPa | - | - | - | - |
| 1778142882 | 18.33° C | 51% | 989.6 hPa | - | - | - | - |
| 1778142876 | 18.33° C | 50% | 989.6 hPa | - | - | - | - |
| 1778142863 | 18.33° C | 51% | 989.5 hPa | - | - | - | - |
| 1778142856 | 17.78° C | 51% | 989.5 hPa | - | - | - | - |
| 1778142850 | 17.78° C | 51% | 989.6 hPa | - | - | - | - |
| 1778142843 | 17.78° C | 51% | 989.4 hPa | - | - | - | - |
| 1777986934 | 29.44° C | 37% | 989.5 hPa | - | - | - | - |
| 1777986783 | 28.89° C | 36% | 989.5 hPa | - | - | - | - |
| 1777986766 | 28.89° C | 36% | 989.3 hPa | - | - | - | - |
| 1777986760 | 28.89° C | 36% | 989.4 hPa | - | - | - | - |
| 1777986732 | 28.33° C | 36% | 989.4 hPa | - | - | - | - |
| 1777986708 | 28.33° C | 36% | 989.4 hPa | - | - | - | - |
| 1777986702 | 28.33° C | 35% | 989.3 hPa | - | - | - | - |
| 1777986676 | 28.33° C | 36% | 989.5 hPa | - | - | - | - |
| 1777986669 | 28.33° C | 36% | 989.4 hPa | - | - | - | - |
| 1777986663 | 28.33° C | 35% | 989.4 hPa | - | - | - | - |
| 1777986446 | 27.22° C | 42% | 989.4 hPa | - | - | - | - |
| 1777986429 | 27.22° C | 43% | 989.3 hPa | - | - | - | - |
| 1777986423 | 27.22° C | 43% | 989.4 hPa | - | - | - | - |
| 1777986416 | 26.67° C | 43% | 989.2 hPa | - | - | - | - |
| 1777986409 | 26.67° C | 43% | 989.1 hPa | - | - | - | - |
* Rain since midnight (hover to see other rain measurements)
** Current wind speed in m/s (hover to see current wind gust speed)